^^
Datos históricos de la estación: Murcia-Puente Tocinos
Diario Informe para Abril 14, 2019 Unidades:  Métrico    Inglés   Ambas
Diario Semanal Mensual Anual Configurable
  Máximo: Mínimo: Media:
Temperatura: 28.2 °C 11.8 °C 20.1 °C
Punto de rocio: 10.8 °C 2.4 °C 6 °C
Humedad: 76% 21% 44%
Velocidad viento: 24.1km/h 0.0km/h 8.2km/h
Racha viento: 42.6km/h - -
Viento- - SSW
Presión: 1017.1 hPa 1011.4 hPa -
Precipitación: 0.0 mm    
Historical Graphs
 
 
Tabla de datos para Abril 14, 2019
Hora Temperatura Punto de rocio Presión Viento Velocidad viento Racha viento Humedad Intensidad lluvia(por hora) Nubes
00:00 15.3 °C 10.5 °C 1017.0 hPa NNW 1.6 km/h 8.0 km/h 73% 0.0 mm CLR
00:05 15.2 °C 10.4 °C 1017.0 hPa NNW 2.3 km/h 3.9 km/h 73% 0.0 mm CLR
00:10 15.2 °C 10.6 °C 1017.0 hPa NW 3.2 km/h 3.9 km/h 74% 0.0 mm CLR
00:15 15.1 °C 10.5 °C 1017.0 hPa NW 3.2 km/h 7.4 km/h 74% 0.0 mm CLR
00:20 15.1 °C 10.5 °C 1017.1 hPa WNW 3.9 km/h 3.7 km/h 74% 0.0 mm CLR
00:25 15.1 °C 10.7 °C 1017.1 hPa WNW 3.9 km/h 5.6 km/h 75% 0.0 mm CLR
00:30 15.0 °C 10.6 °C 1017.1 hPa WNW 2.9 km/h   75% 0.0 mm CLR
00:35 15.0 °C 10.8 °C 1017.1 hPa WNW 2.9 km/h 3.9 km/h 76% 0.0 mm CLR
00:40 15.0 °C 10.8 °C 1017.1 hPa Calm   3.7 km/h 76% 0.0 mm CLR
00:45 15.0 °C 10.8 °C 1017.1 hPa Calm   1.9 km/h 76% 0.0 mm CLR
00:50 14.9 °C 10.7 °C 1017.0 hPa Calm     76% 0.0 mm CLR
00:55 14.9 °C 10.7 °C 1017.0 hPa Calm     76% 0.0 mm CLR
01:00 14.9 °C 10.7 °C 1017.0 hPa Calm     76% 0.0 mm CLR
01:05 14.9 °C 10.7 °C 1016.9 hPa Calm   5.6 km/h 76% 0.0 mm CLR
01:10 15.0 °C 10.6 °C 1016.9 hPa NW 2.3 km/h 3.7 km/h 75% 0.0 mm CLR
01:15 15.0 °C 10.6 °C 1016.9 hPa NW 2.3 km/h   75% 0.0 mm CLR
01:20 15.0 °C 10.6 °C 1016.8 hPa Calm   5.6 km/h 75% 0.0 mm CLR
01:25 15.1 °C 10.7 °C 1016.8 hPa Calm   3.7 km/h 75% 0.0 mm CLR
01:30 15.0 °C 10.4 °C 1016.8 hPa South 2.9 km/h 3.7 km/h 74% 0.0 mm CLR
01:35 14.9 °C 10.5 °C 1016.7 hPa South 2.9 km/h 3.7 km/h 75% 0.0 mm CLR
01:40 14.9 °C 10.5 °C 1016.7 hPa South 2.3 km/h 5.6 km/h 75% 0.0 mm CLR
01:45 14.9 °C 10.3 °C 1016.7 hPa South 2.3 km/h 3.9 km/h 74% 0.0 mm CLR
01:50 14.9 °C 10.1 °C 1016.7 hPa South 2.9 km/h 7.6 km/h 73% 0.0 mm CLR
01:55 14.9 °C 10.1 °C 1016.7 hPa South 2.9 km/h   73% 0.0 mm CLR
02:00 14.9 °C 9.7 °C 1016.7 hPa South 3.2 km/h 8.0 km/h 71% 0.0 mm CLR
02:05 14.8 °C 9.4 °C 1016.6 hPa South 3.2 km/h 8.4 km/h 70% 0.0 mm CLR
02:10 14.8 °C 9.4 °C 1016.6 hPa South 5.8 km/h 9.3 km/h 70% 0.0 mm CLR
02:15 14.8 °C 8.9 °C 1016.6 hPa SSW 5.8 km/h 7.6 km/h 68% 0.0 mm CLR
02:20 14.8 °C 8.7 °C 1016.5 hPa SSW 6.4 km/h 9.3 km/h 67% 0.0 mm CLR
02:25 14.8 °C 8.5 °C 1016.5 hPa SSW 6.4 km/h 11.1 km/h 66% 0.0 mm CLR
02:30 14.8 °C 8.3 °C 1016.5 hPa SSW 6.9 km/h 9.3 km/h 65% 0.0 mm CLR
02:35 14.8 °C 8.1 °C 1016.4 hPa SW 6.9 km/h 9.3 km/h 64% 0.0 mm CLR
02:40 14.8 °C 8.1 °C 1016.4 hPa SSW 6.4 km/h 7.4 km/h 64% 0.0 mm CLR
02:45 14.7 °C 7.9 °C 1016.4 hPa SW 6.4 km/h 11.1 km/h 64% 0.0 mm CLR
02:50 14.7 °C 7.9 °C 1016.1 hPa SW 5.8 km/h 7.4 km/h 64% 0.0 mm CLR
02:55 14.7 °C 7.9 °C 1016.1 hPa SW 5.8 km/h 4.7 km/h 64% 0.0 mm CLR
03:00 14.7 °C 7.9 °C 1016.1 hPa SW 3.2 km/h 8.0 km/h 64% 0.0 mm CLR
03:05 14.7 °C 7.9 °C 1016.0 hPa SSW 3.9 km/h 7.4 km/h 64% 0.0 mm CLR
03:10 14.7 °C 7.9 °C 1016.0 hPa SSW 5.0 km/h 7.6 km/h 64% 0.0 mm CLR
03:15 14.6 °C 7.9 °C 1016.0 hPa SW 5.0 km/h 11.1 km/h 64% 0.0 mm CLR
03:20 14.6 °C 7.9 °C 1015.8 hPa SW 6.9 km/h 5.6 km/h 64% 0.0 mm CLR
03:25 14.6 °C 7.9 °C 1015.8 hPa SW 6.9 km/h 7.4 km/h 64% 0.0 mm CLR
03:30 14.4 °C 7.7 °C 1015.8 hPa SE 4.7 km/h 3.9 km/h 64% 0.0 mm CLR
03:35 14.3 °C 7.8 °C 1015.6 hPa SSW 4.7 km/h 7.4 km/h 65% 0.0 mm CLR
03:40 14.2 °C 7.7 °C 1015.6 hPa SSW 4.7 km/h 5.6 km/h 65% 0.0 mm CLR
03:45 14.3 °C 7.8 °C 1015.6 hPa SSW 4.7 km/h 5.6 km/h 65% 0.0 mm CLR
03:50 14.3 °C 7.6 °C 1015.5 hPa SSW 3.9 km/h 9.3 km/h 64% 0.0 mm CLR
03:55 14.2 °C 7.5 °C 1015.5 hPa SSW 3.9 km/h 7.4 km/h 64% 0.0 mm CLR
04:00 14.2 °C 7.3 °C 1015.5 hPa SSW 4.8 km/h 12.9 km/h 63% 0.0 mm CLR
04:05 14.2 °C 7.3 °C 1015.5 hPa SW 5.8 km/h 11.1 km/h 63% 0.0 mm CLR
04:10 14.2 °C 7.3 °C 1015.5 hPa SW 6.9 km/h 11.1 km/h 63% 0.0 mm CLR
04:15 14.1 °C 6.9 °C 1015.5 hPa SSW 6.9 km/h 9.3 km/h 62% 0.0 mm CLR
04:20 14.0 °C 6.8 °C 1015.5 hPa WSW 6.9 km/h 11.1 km/h 62% 0.0 mm CLR
04:25 13.9 °C 6.9 °C 1015.5 hPa WSW 6.9 km/h 7.4 km/h 63% 0.0 mm CLR
04:30 13.8 °C 6.7 °C 1015.5 hPa SSW 5.8 km/h 9.3 km/h 62% 0.0 mm CLR
04:35 13.6 °C 6.2 °C 1015.4 hPa WNW 5.8 km/h 7.4 km/h 61% 0.0 mm CLR
04:40 13.5 °C 6.3 °C 1015.4 hPa WSW 5.8 km/h 5.6 km/h 62% 0.0 mm CLR
04:45 13.4 °C 6.3 °C 1015.4 hPa West 5.8 km/h 7.4 km/h 62% 0.0 mm CLR
04:50 13.3 °C 6.4 °C 1015.4 hPa WSW 4.7 km/h 5.6 km/h 63% 0.0 mm CLR
04:55 13.2 °C 6.3 °C 1015.4 hPa SW 4.7 km/h 6.4 km/h 63% 0.0 mm CLR
05:00 13.2 °C 6.6 °C 1015.4 hPa SW 3.2 km/h 8.0 km/h 64% 0.0 mm CLR
05:05 13.3 °C 6.4 °C 1015.5 hPa South 3.9 km/h 7.4 km/h 63% 0.0 mm CLR
05:10 13.3 °C 6.2 °C 1015.5 hPa South 4.7 km/h 3.7 km/h 62% 0.0 mm CLR
05:15 13.4 °C 6.5 °C 1015.5 hPa South 4.7 km/h 5.6 km/h 63% 0.0 mm CLR
05:20 13.4 °C 6.3 °C 1015.5 hPa South 2.9 km/h 7.4 km/h 62% 0.0 mm CLR
05:25 13.4 °C 6.3 °C 1015.5 hPa SSE 2.9 km/h 7.4 km/h 62% 0.0 mm CLR
05:30 13.2 °C 6.3 °C 1015.5 hPa SSE 4.7 km/h 9.3 km/h 63% 0.0 mm CLR
05:35 12.9 °C 6.2 °C 1015.4 hPa SSE 4.7 km/h 7.4 km/h 64% 0.0 mm CLR
05:40 12.8 °C 6.2 °C 1015.4 hPa SSE 5.8 km/h 7.4 km/h 64% 0.0 mm CLR
05:45 12.7 °C 6.1 °C 1015.4 hPa SE 5.8 km/h 7.4 km/h 64% 0.0 mm CLR
05:50 12.6 °C 5.9 °C 1015.4 hPa SSE 5.0 km/h 5.6 km/h 64% 0.0 mm CLR
05:55 12.4 °C 6.0 °C 1015.4 hPa SSE 5.0 km/h 7.6 km/h 65% 0.0 mm CLR
06:00 12.3 °C 5.9 °C 1015.4 hPa SSE 4.8 km/h 9.7 km/h 65% 0.0 mm CLR
06:05 12.1 °C 5.9 °C 1015.4 hPa SSE 5.0 km/h 9.3 km/h 66% 0.0 mm CLR
06:10 12.0 °C 6.1 °C 1015.4 hPa SSE 6.4 km/h 11.1 km/h 67% 0.0 mm CLR
06:15 11.9 °C 5.9 °C 1015.4 hPa South 6.4 km/h 9.3 km/h 67% 0.0 mm CLR
06:20 11.8 °C 5.9 °C 1015.5 hPa SSE 8.7 km/h 13.0 km/h 67% 0.0 mm CLR
06:25 11.9 °C 5.7 °C 1015.5 hPa South 8.7 km/h 11.1 km/h 66% 0.0 mm CLR
06:30 11.9 °C 5.7 °C 1015.5 hPa South 8.4 km/h 11.1 km/h 66% 0.0 mm CLR
06:35 12.0 °C 5.8 °C 1015.5 hPa South 8.4 km/h 11.1 km/h 66% 0.0 mm CLR
06:40 12.0 °C 5.8 °C 1015.5 hPa South 6.9 km/h 11.1 km/h 66% 0.0 mm CLR
06:45 12.1 °C 5.9 °C 1015.5 hPa South 6.9 km/h 11.1 km/h 66% 0.0 mm CLR
06:50 12.1 °C 5.9 °C 1015.5 hPa South 7.6 km/h 8.4 km/h 66% 0.0 mm CLR
06:55 12.2 °C 5.8 °C 1015.5 hPa SSW 7.6 km/h 9.5 km/h 65% 0.0 mm CLR
07:00 12.3 °C 5.9 °C 1015.5 hPa SSW 8.0 km/h 11.3 km/h 65% 0.0 mm CLR
07:05 12.4 °C 5.8 °C 1015.5 hPa SSW 6.4 km/h 11.1 km/h 64% 0.0 mm CLR
07:10 12.6 °C 5.7 °C 1015.5 hPa SW 7.6 km/h 11.1 km/h 63% 0.0 mm CLR
07:15 12.6 °C 5.7 °C 1015.5 hPa SW 7.6 km/h 11.1 km/h 63% 0.0 mm CLR
07:20 12.7 °C 5.6 °C 1015.6 hPa SW 6.9 km/h 11.1 km/h 62% 0.0 mm CLR
07:25 12.8 °C 5.4 °C 1015.6 hPa SW 6.9 km/h 7.4 km/h 61% 0.0 mm CLR
07:30 12.9 °C 5.6 °C 1015.6 hPa South 5.8 km/h 8.4 km/h 61% 0.0 mm CLR
07:35 12.9 °C 5.6 °C 1015.6 hPa SE 5.8 km/h 7.6 km/h 61% 0.0 mm CLR
07:40 12.7 °C 5.6 °C 1015.6 hPa South 6.4 km/h 9.3 km/h 62% 0.0 mm CLR
07:45 12.5 °C 5.7 °C 1015.6 hPa South 6.4 km/h 7.4 km/h 63% 0.0 mm CLR
07:50 12.4 °C 5.8 °C 1015.7 hPa SSE 5.8 km/h 7.6 km/h 64% 0.0 mm CLR
07:55 12.3 °C 5.7 °C 1015.7 hPa South 5.8 km/h 7.4 km/h 64% 0.0 mm CLR
08:00 12.2 °C 5.6 °C 1015.7 hPa South 4.8 km/h 8.0 km/h 64% 0.0 mm CLR
08:05 12.3 °C 5.9 °C 1015.8 hPa South 5.0 km/h 7.4 km/h 65% 0.0 mm CLR
08:10 12.4 °C 6.0 °C 1015.8 hPa SSE 5.0 km/h 7.4 km/h 65% 0.0 mm CLR
08:15 12.4 °C 6.0 °C 1015.8 hPa SSE 5.0 km/h 9.3 km/h 65% 0.0 mm CLR
08:20 12.3 °C 5.9 °C 1015.9 hPa South 5.0 km/h 9.3 km/h 65% 0.0 mm CLR
08:25 12.3 °C 5.9 °C 1015.9 hPa South 5.0 km/h 10.0 km/h 65% 0.0 mm CLR
08:30 12.3 °C 5.9 °C 1015.9 hPa SSW 7.6 km/h 8.4 km/h 65% 0.0 mm CLR
08:35 12.7 °C 5.8 °C 1015.9 hPa SSW 7.6 km/h 11.1 km/h 63% 0.0 mm CLR
08:40 13.0 °C 5.9 °C 1015.9 hPa South 7.6 km/h 11.1 km/h 62% 0.0 mm CLR
08:45 13.3 °C 5.9 °C 1015.9 hPa SSE 7.6 km/h 13.0 km/h 61% 0.0 mm CLR
08:50 13.3 °C 5.9 °C 1015.8 hPa SSE 8.7 km/h 11.1 km/h 61% 0.0 mm CLR
08:55 13.5 °C 5.9 °C 1015.8 hPa SSE 8.7 km/h 11.1 km/h 60% 0.0 mm CLR
09:00 13.7 °C 6.1 °C 1015.8 hPa South 9.7 km/h 12.9 km/h 60% 0.0 mm CLR
09:05 14.0 °C 5.8 °C 1015.9 hPa South 8.7 km/h 11.1 km/h 58% 0.0 mm CLR
09:10 14.3 °C 5.9 °C 1015.9 hPa SSW 8.4 km/h 11.1 km/h 57% 0.0 mm CLR
09:15 14.8 °C 6.1 °C 1015.9 hPa SW 8.4 km/h 13.0 km/h 56% 0.0 mm CLR
09:20 15.3 °C 6.1 °C 1016.0 hPa South 8.4 km/h 11.1 km/h 54% 0.0 mm CLR
09:25 15.6 °C 6.3 °C 1016.0 hPa SSW 8.4 km/h 9.3 km/h 54% 0.0 mm CLR
09:30 16.0 °C 6.2 °C 1016.0 hPa SSW 6.9 km/h 16.1 km/h 52% 0.0 mm CLR
09:35 16.4 °C 5.9 °C 1016.0 hPa SW 6.9 km/h 13.0 km/h 50% 0.0 mm CLR
09:40 16.7 °C 6.2 °C 1016.0 hPa SSW 8.7 km/h 13.0 km/h 50% 0.0 mm CLR
09:45 16.9 °C 6.1 °C 1016.0 hPa SW 8.7 km/h 16.7 km/h 49% 0.0 mm CLR
09:50 17.2 °C 6.1 °C 1015.9 hPa SW 8.4 km/h 16.7 km/h 48% 0.0 mm CLR
09:55 17.4 °C 6.3 °C 1015.9 hPa SSW 8.4 km/h 11.1 km/h 48% 0.0 mm CLR
10:00 17.7 °C 6.6 °C 1015.9 hPa SSW 9.7 km/h 14.5 km/h 48% 0.0 mm CLR
10:05 17.9 °C 6.4 °C 1016.0 hPa South 8.7 km/h 14.8 km/h 47% 0.0 mm CLR
10:10 18.1 °C 6.6 °C 1016.0 hPa WSW 9.5 km/h 11.1 km/h 47% 0.0 mm CLR
10:15 18.5 °C 6.7 °C 1016.0 hPa WSW 9.5 km/h 13.0 km/h 46% 0.0 mm CLR
10:20 18.7 °C 6.5 °C 1016.0 hPa WSW 8.7 km/h 14.8 km/h 45% 0.0 mm CLR
10:25 18.9 °C 6.7 °C 1016.0 hPa SW 8.7 km/h 16.7 km/h 45% 0.0 mm CLR
10:30 19.1 °C 6.6 °C 1016.0 hPa West 10.3 km/h 11.1 km/h 44% 0.0 mm CLR
10:35 19.4 °C 6.8 °C 1016.0 hPa WSW 10.3 km/h 16.7 km/h 44% 0.0 mm CLR
10:40 19.6 °C 6.7 °C 1016.0 hPa WNW 9.5 km/h 13.0 km/h 43% 0.0 mm CLR
10:45 19.9 °C 6.6 °C 1016.0 hPa West 9.5 km/h 16.7 km/h 42% 0.0 mm CLR
10:50 20.1 °C 6.8 °C 1016.1 hPa WNW 9.5 km/h 13.0 km/h 42% 0.0 mm CLR
10:55 20.3 °C 6.6 °C 1016.1 hPa WSW 9.5 km/h 16.7 km/h 41% 0.0 mm CLR
11:00 20.6 °C 6.8 °C 1016.1 hPa West 9.7 km/h 19.3 km/h 41% 0.0 mm CLR
11:05 20.8 °C 6.3 °C 1016.0 hPa SSW 9.5 km/h 14.8 km/h 39% 0.0 mm CLR
11:10 21.0 °C 6.1 °C 1016.0 hPa SW 10.3 km/h 18.5 km/h 38% 0.0 mm CLR
11:15 21.1 °C 5.8 °C 1016.0 hPa SW 10.3 km/h 13.0 km/h 37% 0.0 mm CLR
11:20 21.3 °C 6.0 °C 1015.8 hPa WSW 9.5 km/h 10.0 km/h 37% 0.0 mm CLR
11:25 21.6 °C 6.3 °C 1015.8 hPa WSW 9.5 km/h 11.1 km/h 37% 0.0 mm CLR
11:30 21.7 °C 6.4 °C 1015.8 hPa West 7.6 km/h 7.4 km/h 37% 0.0 mm CLR
11:35 21.8 °C 6.4 °C 1015.9 hPa SSW 7.6 km/h 7.4 km/h 37% 0.0 mm CLR
11:40 22.1 °C 6.3 °C 1015.9 hPa South 6.4 km/h 13.0 km/h 36% 0.0 mm CLR
11:45 22.3 °C 6.1 °C 1015.9 hPa WSW 6.4 km/h 18.5 km/h 35% 0.0 mm CLR
11:50 22.4 °C 6.2 °C 1015.8 hPa SSW 10.0 km/h 13.0 km/h 35% 0.0 mm CLR
11:55 22.7 °C 6.4 °C 1015.8 hPa SW 10.0 km/h 13.0 km/h 35% 0.0 mm CLR
12:00 22.9 °C 6.2 °C 1015.8 hPa SW 8.0 km/h 12.9 km/h 34% 0.0 mm CLR
12:05 23.2 °C 6.4 °C 1015.6 hPa SW 7.6 km/h 11.1 km/h 34% 0.0 mm CLR
12:10 23.3 °C 5.7 °C 1015.6 hPa SW 8.4 km/h 18.5 km/h 32% 0.0 mm CLR
12:15 23.4 °C 5.8 °C 1015.6 hPa NNW 8.4 km/h 14.0 km/h 32% 0.0 mm CLR
12:20 23.6 °C 5.9 °C 1015.3 hPa West 9.5 km/h 11.1 km/h 32% 0.0 mm CLR
12:25 23.7 °C 6.0 °C 1015.3 hPa West 9.5 km/h 13.0 km/h 32% 0.0 mm CLR
12:30 23.9 °C 5.7 °C 1015.3 hPa WSW 9.5 km/h 13.0 km/h 31% 0.0 mm CLR
12:35 23.9 °C 5.7 °C 1015.2 hPa WSW 9.5 km/h 13.0 km/h 31% 0.0 mm CLR
12:40 24.0 °C 5.8 °C 1015.2 hPa West 6.9 km/h 18.5 km/h 31% 0.0 mm CLR
12:45 24.1 °C 5.9 °C 1015.2 hPa West 6.9 km/h 6.4 km/h 31% 0.0 mm CLR
12:50 24.3 °C 5.6 °C 1014.9 hPa West 9.5 km/h 9.3 km/h 30% 0.0 mm CLR
12:55 24.6 °C 5.9 °C 1014.9 hPa WNW 9.5 km/h 14.8 km/h 30% 0.0 mm CLR
13:00 24.7 °C 5.9 °C 1014.9 hPa West 9.7 km/h 14.5 km/h 30% 0.0 mm CLR
13:05 24.8 °C 6.1 °C 1014.7 hPa WSW 9.5 km/h 13.0 km/h 30% 0.0 mm CLR
13:10 25.0 °C 5.7 °C 1014.7 hPa West 8.7 km/h 16.7 km/h 29% 0.0 mm CLR
13:15 25.3 °C 5.4 °C 1014.7 hPa SW 8.7 km/h 13.0 km/h 28% 0.0 mm CLR
13:20 25.3 °C 4.9 °C 1014.6 hPa SW 8.4 km/h 13.0 km/h 27% 0.0 mm CLR
13:25 25.4 °C 5.1 °C 1014.6 hPa WNW 8.4 km/h 15.6 km/h 27% 0.0 mm CLR
13:30 25.5 °C 4.6 °C 1014.6 hPa NW 7.6 km/h 10.3 km/h 26% 0.0 mm CLR
13:35 25.6 °C 4.7 °C 1014.5 hPa North 7.6 km/h 11.1 km/h 26% 0.0 mm CLR
13:40 25.7 °C 4.7 °C 1014.5 hPa NW 8.7 km/h 18.5 km/h 26% 0.0 mm CLR
13:45 25.8 °C 4.8 °C 1014.5 hPa WNW 8.7 km/h 24.1 km/h 26% 0.0 mm CLR
13:50 25.7 °C 4.7 °C 1014.3 hPa NW 12.2 km/h 14.8 km/h 26% 0.0 mm CLR
13:55 25.8 °C 4.8 °C 1014.3 hPa NNW 12.2 km/h 20.4 km/h 26% 0.0 mm CLR
14:00 25.9 °C 4.9 °C 1014.3 hPa WNW 11.3 km/h 19.3 km/h 26% 0.0 mm CLR
14:05 25.9 °C 4.9 °C 1014.1 hPa West 11.1 km/h 9.3 km/h 26% 0.0 mm CLR
14:10 26.2 °C 5.2 °C 1014.1 hPa NNW 7.6 km/h 11.1 km/h 26% 0.0 mm CLR
14:15 26.3 °C 4.7 °C 1014.1 hPa WNW 7.6 km/h 11.1 km/h 25% 0.0 mm CLR
14:20 26.4 °C 4.8 °C 1014.0 hPa West 7.6 km/h 3.7 km/h 25% 0.0 mm CLR
14:25 26.7 °C 5.1 °C 1014.0 hPa NW 7.6 km/h 11.1 km/h 25% 0.0 mm CLR
14:30 26.9 °C 4.6 °C 1014.0 hPa West 4.7 km/h 5.6 km/h 24% 0.0 mm CLR
14:35 26.9 °C 4.6 °C 1013.8 hPa West 4.7 km/h 11.1 km/h 24% 0.0 mm CLR
14:40 26.8 °C 4.6 °C 1013.8 hPa NNE 5.8 km/h 7.4 km/h 24% 0.0 mm CLR
14:45 27.1 °C 4.8 °C 1013.8 hPa NE 5.8 km/h 9.3 km/h 24% 0.0 mm CLR
14:50 27.3 °C 4.9 °C 1013.5 hPa NE 4.7 km/h 3.9 km/h 24% 0.0 mm CLR
14:55 27.6 °C 4.6 °C 1013.5 hPa West 4.7 km/h 14.8 km/h 23% 0.0 mm CLR
15:00 27.4 °C 4.4 °C 1013.5 hPa West 8.0 km/h 11.3 km/h 23% 0.0 mm CLR
15:05 27.6 °C 4.6 °C 1013.4 hPa West 6.4 km/h 14.8 km/h 23% 0.0 mm CLR
15:10 27.3 °C 4.3 °C 1013.4 hPa ENE 6.4 km/h 11.1 km/h 23% 0.0 mm CLR
15:15 27.3 °C 4.3 °C 1013.4 hPa ENE 6.4 km/h 14.8 km/h 23% 0.0 mm CLR
15:20 27.2 °C 4.3 °C 1013.1 hPa NE 8.7 km/h 11.9 km/h 23% 0.0 mm CLR
15:25 27.3 °C 4.3 °C 1013.1 hPa SE 8.7 km/h 13.0 km/h 23% 0.0 mm CLR
15:30 27.6 °C 3.9 °C 1013.1 hPa SE 7.6 km/h 13.0 km/h 22% 0.0 mm CLR
15:35 27.6 °C 3.9 °C 1013.0 hPa SE 7.6 km/h 11.1 km/h 22% 0.0 mm CLR
15:40 27.6 °C 3.9 °C 1013.0 hPa SE 8.4 km/h 6.4 km/h 22% 0.0 mm CLR
15:45 27.8 °C 4.1 °C 1013.0 hPa South 8.4 km/h 5.6 km/h 22% 0.0 mm CLR
15:50 28.0 °C 4.3 °C 1012.6 hPa NE 3.9 km/h 13.0 km/h 22% 0.0 mm CLR
15:55 28.0 °C 4.9 °C 1012.6 hPa East 3.9 km/h 20.4 km/h 23% 0.0 mm CLR
16:00 27.9 °C 4.2 °C 1012.6 hPa ESE 11.3 km/h 20.9 km/h 22% 0.0 mm CLR
16:05 28.1 °C 3.7 °C 1012.3 hPa SSE 10.3 km/h 22.2 km/h 21% 0.0 mm CLR
16:10 28.1 °C 3.7 °C 1012.3 hPa SSW 13.0 km/h 20.4 km/h 21% 0.0 mm CLR
16:15 28.2 °C 3.8 °C 1012.3 hPa SE 13.0 km/h 18.5 km/h 21% 0.0 mm CLR
16:20 28.2 °C 3.8 °C 1012.1 hPa SSE 13.7 km/h 31.5 km/h 21% 0.0 mm CLR
16:25 27.8 °C 3.4 °C 1012.1 hPa South 13.7 km/h 30.9 km/h 21% 0.0 mm CLR
16:30 27.6 °C 3.9 °C 1012.1 hPa South 22.0 km/h 27.8 km/h 22% 0.0 mm CLR
16:35 27.7 °C 4.1 °C 1011.9 hPa South 22.0 km/h 24.1 km/h 22% 0.0 mm CLR
16:40 27.7 °C 4.1 °C 1011.9 hPa SSE 19.0 km/h 25.9 km/h 22% 0.0 mm CLR
16:45 27.5 °C 3.9 °C 1011.9 hPa SE 19.0 km/h 31.5 km/h 22% 0.0 mm CLR
16:50 27.4 °C 3.8 °C 1012.0 hPa South 20.9 km/h 27.8 km/h 22% 0.0 mm CLR
16:55 27.3 °C 3.7 °C 1012.0 hPa South 20.9 km/h 26.2 km/h 22% 0.0 mm CLR
17:00 27.2 °C 3.7 °C 1012.0 hPa SSE 22.5 km/h 33.8 km/h 22% 0.0 mm CLR
17:05 27.2 °C 3.6 °C 1011.9 hPa SSE 21.7 km/h 29.6 km/h 22% 0.0 mm CLR
17:10 27.3 °C 3.7 °C 1011.9 hPa SSE 22.0 km/h 31.5 km/h 22% 0.0 mm CLR
17:15 27.3 °C 3.7 °C 1011.9 hPa South 22.0 km/h 35.2 km/h 22% 0.0 mm CLR
17:20 27.0 °C 4.1 °C 1011.9 hPa SSE 22.0 km/h 29.6 km/h 23% 0.0 mm CLR
17:25 26.8 °C 3.9 °C 1011.9 hPa South 22.0 km/h 27.8 km/h 23% 0.0 mm CLR
17:30 26.9 °C 4.0 °C 1011.9 hPa SE 23.3 km/h 29.6 km/h 23% 0.0 mm CLR
17:35 26.9 °C 3.4 °C 1011.8 hPa South 23.3 km/h 42.6 km/h 22% 0.0 mm CLR
17:40 26.8 °C 3.9 °C 1011.8 hPa SE 21.7 km/h 33.3 km/h 23% 0.0 mm CLR
17:45 26.8 °C 3.9 °C 1011.8 hPa SSW 21.7 km/h 33.3 km/h 23% 0.0 mm CLR
17:50 26.7 °C 3.8 °C 1011.8 hPa South 22.0 km/h 33.3 km/h 23% 0.0 mm CLR
17:55 26.7 °C 3.8 °C 1011.8 hPa SSE 22.0 km/h 33.3 km/h 23% 0.0 mm CLR
18:00 26.6 °C 4.4 °C 1011.8 hPa South 24.1 km/h 35.4 km/h 24% 0.0 mm CLR
18:05 26.7 °C 3.8 °C 1011.7 hPa SSE 23.3 km/h 25.9 km/h 23% 0.0 mm CLR
18:10 26.8 °C 3.9 °C 1011.7 hPa SSE 18.3 km/h 35.2 km/h 23% 0.0 mm CLR
18:15 26.7 °C 4.4 °C 1011.7 hPa South 18.3 km/h 29.6 km/h 24% 0.0 mm CLR
18:20 26.5 °C 4.3 °C 1011.7 hPa SSE 20.9 km/h 27.8 km/h 24% 0.0 mm CLR
18:25 26.3 °C 4.1 °C 1011.7 hPa South 20.9 km/h 29.6 km/h 24% 0.0 mm CLR
18:30 26.3 °C 4.1 °C 1011.7 hPa South 21.7 km/h 31.5 km/h 24% 0.0 mm CLR
18:35 26.4 °C 4.2 °C 1011.6 hPa South 21.7 km/h 24.5 km/h 24% 0.0 mm CLR
18:40 26.4 °C 4.2 °C 1011.6 hPa SSE 18.0 km/h 24.1 km/h 24% 0.0 mm CLR
18:45 26.5 °C 4.3 °C 1011.6 hPa SSE 18.0 km/h 27.8 km/h 24% 0.0 mm CLR
18:50 26.3 °C 4.7 °C 1011.5 hPa SSE 17.2 km/h 27.8 km/h 25% 0.0 mm CLR
18:55 26.2 °C 4.6 °C 1011.5 hPa South 17.2 km/h 24.1 km/h 25% 0.0 mm CLR
19:00 26.4 °C 4.8 °C 1011.5 hPa SSE 16.1 km/h 19.3 km/h 25% 0.0 mm CLR
19:05 26.5 °C 4.9 °C 1011.4 hPa SSE 16.4 km/h 25.9 km/h 25% 0.0 mm CLR
19:10 26.3 °C 4.7 °C 1011.4 hPa SSW 13.0 km/h 29.6 km/h 25% 0.0 mm CLR
19:15 26.2 °C 5.2 °C 1011.4 hPa South 13.0 km/h 16.7 km/h 26% 0.0 mm CLR
19:20 26.2 °C 5.2 °C 1011.4 hPa SSE 13.7 km/h 16.7 km/h 26% 0.0 mm CLR
19:25 26.1 °C 4.5 °C 1011.4 hPa South 13.7 km/h 25.9 km/h 25% 0.0 mm CLR
19:30 25.9 °C 4.9 °C 1011.4 hPa SSE 14.0 km/h 20.4 km/h 26% 0.0 mm CLR
19:35 25.8 °C 4.8 °C 1011.5 hPa SSE 14.0 km/h 24.1 km/h 26% 0.0 mm CLR
19:40 25.8 °C 4.8 °C 1011.5 hPa SE 14.0 km/h 18.5 km/h 26% 0.0 mm CLR
19:45 25.6 °C 4.7 °C 1011.5 hPa ESE 14.0 km/h 16.7 km/h 26% 0.0 mm CLR
19:50 25.6 °C 5.2 °C 1011.5 hPa South 11.9 km/h 11.9 km/h 27% 0.0 mm CLR
19:55 25.6 °C 5.2 °C 1011.5 hPa South 11.9 km/h 14.8 km/h 27% 0.0 mm CLR
20:00 25.6 °C 5.2 °C 1011.5 hPa SSE 9.7 km/h 9.7 km/h 27% 0.0 mm CLR
20:05 25.6 °C 4.7 °C 1011.6 hPa SSE 8.7 km/h 11.1 km/h 26% 0.0 mm CLR
20:10 25.4 °C 4.5 °C 1011.6 hPa South 6.4 km/h 10.3 km/h 26% 0.0 mm CLR
20:15 25.3 °C 4.4 °C 1011.6 hPa South 6.4 km/h 13.0 km/h 26% 0.0 mm CLR
20:20 25.1 °C 4.2 °C 1011.7 hPa SSE 8.4 km/h 16.7 km/h 26% 0.0 mm CLR
20:25 24.9 °C 4.1 °C 1011.7 hPa South 8.4 km/h 16.7 km/h 26% 0.0 mm CLR
20:30 24.7 °C 3.9 °C 1011.7 hPa SSE 10.3 km/h 11.1 km/h 26% 0.0 mm CLR
20:35 24.6 °C 4.3 °C 1011.9 hPa SSE 10.3 km/h 11.1 km/h 27% 0.0 mm CLR
20:40 24.4 °C 4.2 °C 1011.9 hPa South 5.8 km/h 9.3 km/h 27% 0.0 mm CLR
20:45 24.3 °C 3.0 °C 1011.9 hPa South 5.8 km/h 11.1 km/h 25% 0.0 mm CLR
20:50 24.2 °C 4.0 °C 1012.3 hPa South 5.8 km/h 3.7 km/h 27% 0.0 mm CLR
20:55 24.1 °C 3.4 °C 1012.3 hPa South 5.8 km/h 3.9 km/h 26% 0.0 mm CLR
21:00 24.0 °C 4.3 °C 1012.3 hPa SSW 1.6 km/h 4.8 km/h 28% 0.0 mm CLR
21:05 23.8 °C 4.2 °C 1012.4 hPa SW 2.3 km/h 3.7 km/h 28% 0.0 mm CLR
21:10 23.6 °C 3.5 °C 1012.4 hPa SSW 2.3 km/h 9.3 km/h 27% 0.0 mm CLR
21:15 23.6 °C 2.9 °C 1012.4 hPa WSW 2.3 km/h 7.4 km/h 26% 0.0 mm CLR
21:20 23.6 °C 2.9 °C 1012.5 hPa WSW 5.0 km/h 7.4 km/h 26% 0.0 mm CLR
21:25 23.6 °C 2.4 °C 1012.5 hPa SW 5.0 km/h 7.6 km/h 25% 0.0 mm CLR
21:30 23.6 °C 2.4 °C 1012.5 hPa SSW 4.7 km/h 7.6 km/h 25% 0.0 mm CLR
21:35 23.6 °C 2.4 °C 1012.6 hPa SW 4.7 km/h 7.4 km/h 25% 0.0 mm CLR
21:40 23.6 °C 2.4 °C 1012.6 hPa WSW 5.0 km/h 9.3 km/h 25% 0.0 mm CLR
21:45 23.5 °C 2.9 °C 1012.6 hPa West 5.0 km/h 7.4 km/h 26% 0.0 mm CLR
21:50 23.3 °C 2.7 °C 1012.8 hPa WNW 5.8 km/h 7.4 km/h 26% 0.0 mm CLR
21:55 23.2 °C 3.2 °C 1012.8 hPa WNW 5.8 km/h 7.4 km/h 27% 0.0 mm CLR
22:00 22.9 °C 3.5 °C 1012.8 hPa WNW 3.2 km/h 4.8 km/h 28% 0.0 mm CLR
22:05 22.7 °C 4.2 °C 1013.1 hPa WNW 3.2 km/h   30% 0.0 mm CLR
22:10 22.6 °C 5.1 °C 1013.1 hPa Calm   7.4 km/h 32% 0.0 mm CLR
22:15 22.4 °C 4.9 °C 1013.1 hPa Calm   3.7 km/h 32% 0.0 mm CLR
22:20 22.3 °C 5.2 °C 1013.3 hPa West 2.3 km/h 5.6 km/h 33% 0.0 mm CLR
22:25 22.2 °C 5.2 °C 1013.3 hPa WSW 2.3 km/h 7.4 km/h 33% 0.0 mm CLR
22:30 22.1 °C 5.5 °C 1013.3 hPa South 4.7 km/h 7.4 km/h 34% 0.0 mm CLR
22:35 22.0 °C 5.8 °C 1013.4 hPa SW 4.7 km/h 10.0 km/h 35% 0.0 mm CLR
22:40 21.9 °C 6.2 °C 1013.4 hPa SSW 5.0 km/h 7.4 km/h 36% 0.0 mm CLR
22:45 21.7 °C 6.4 °C 1013.4 hPa South 5.0 km/h 9.3 km/h 37% 0.0 mm CLR
22:50 21.6 °C 6.7 °C 1013.4 hPa South 5.8 km/h 7.4 km/h 38% 0.0 mm CLR
22:55 21.4 °C 6.9 °C 1013.4 hPa SSW 5.8 km/h 7.4 km/h 39% 0.0 mm CLR
23:00 21.3 °C 7.1 °C 1013.4 hPa SSW 4.8 km/h 9.7 km/h 40% 0.0 mm CLR
23:05 21.1 °C 6.9 °C 1013.3 hPa South 5.8 km/h 9.3 km/h 40% 0.0 mm CLR
23:10 21.0 °C 7.2 °C 1013.3 hPa South 6.4 km/h 11.1 km/h 41% 0.0 mm CLR
23:15 20.9 °C 7.2 °C 1013.3 hPa SSE 6.4 km/h 7.4 km/h 41% 0.0 mm CLR
23:20 20.9 °C 7.2 °C 1013.4 hPa ESE 5.8 km/h 7.4 km/h 41% 0.0 mm CLR
23:25 20.7 °C 7.3 °C 1013.4 hPa SE 5.8 km/h 9.3 km/h 42% 0.0 mm CLR
23:30 20.5 °C 7.5 °C 1013.4 hPa SE 5.8 km/h 7.4 km/h 43% 0.0 mm CLR
23:35 20.3 °C 7.3 °C 1013.5 hPa SE 5.8 km/h 7.4 km/h 43% 0.0 mm CLR
23:40 20.2 °C 7.6 °C 1013.5 hPa SE 5.0 km/h 7.4 km/h 44% 0.0 mm CLR
23:45 19.9 °C 7.6 °C 1013.5 hPa SSE 5.0 km/h 9.3 km/h 45% 0.0 mm CLR
23:50 19.8 °C 7.8 °C 1013.6 hPa SSE 6.9 km/h 13.0 km/h 46% 0.0 mm CLR
23:55 19.6 °C 8.0 °C 1013.6 hPa South 6.9 km/h 11.1 km/h 47% 0.0 mm CLR
Murcia-Puente Tocinos, España
Compliments of Weather Underground - 2.75 mb

La estación de MeteoMurcia.com, publica sus datos en los siguientes proyectos:

Weather Underground PWS IMURCIAP2 Meteoclimatic www.awekas.at

W3Counter
Web Analytics